Weather History for VANP - April, 2013

Change the Weather History Date:

Tuesday, April 2, 2013

  Actual Average Record
Temperature  
Mean Temperature 86 °F -  
Max Temperature 102 °F 105 °F - ()
Min Temperature 71 °F 76 °F - ()
Cooling Degree Days 22    
Growing Degree Days 36 (Base 50)    
Moisture  
Dew Point 64 °F    
Average Humidity 41    
Maximum Humidity 66    
Minimum Humidity 19    
Precipitation  
Precipitation 0.00 in 0.01 in - ()
Sea Level Pressure  
Sea Level Pressure 29.79 in    
Wind  
Wind Speed 3 mph ()    
Max Wind Speed 13 mph    
Max Gust Speed -    
Visibility 2.7 miles    
Events      
T = Trace of Precipitation, MM = Missing Value Source: Averaged Metar Reports

Daily Weather History Graph

Daily Weather History Graph

Search for Another Location

Airport or City:

Trip Planner

Search our weather history database for the weather conditions in past years. The results will help you decide how hot, cold, wet, or windy it might be!

Date:

Astronomy

Apr. 02, 2013 Rise Set
Actual Time 6:06 AM IST 6:28 PM IST
Civil Twilight 5:43 AM IST 6:51 PM IST
Nautical Twilight 5:17 AM IST 7:17 PM IST
Astronomical Twilight 4:51 AM IST 7:43 PM IST
Moon No Moon Rise 10:57 AM IST (4/2)
Length of Visible Light 13h 07m
Length of Day
12h 22m
Waning Gibbous, 60% of the Moon is Illuminated
Apr 2
Waning Gibbous
Apr 3
Last Quarter
Apr 10
New
Apr 18
First Quarter
Apr 26
Full

Hourly Weather History & Observations

Time (IST) Temp. Heat Index Dew Point Humidity Pressure Visibility Wind Dir Wind Speed Gust Speed Precip Events Conditions
12:10 AM 84.2 °F 85.0 °F 62.6 °F 48% 29.80 in 2.5 mi SSW 3.5 mph - N/A   Haze
1:10 AM 82.4 °F 82.9 °F 60.8 °F 48% 29.77 in 2.5 mi Calm Calm - N/A   Haze
2:10 AM 84.2 °F 85.0 °F 62.6 °F 48% 29.77 in 2.5 mi Calm Calm - N/A   Haze
2:30 AM 77 °F - 63 °F 54% 29.74 in 1 mi Calm Calm - -   Haze
3:10 AM 82.4 °F 82.9 °F 60.8 °F 48% 29.77 in 2.5 mi Calm Calm - N/A   Haze
4:10 AM 78.8 °F - 62.6 °F 57% 29.77 in 2.5 mi West 2.3 mph - N/A   Haze
5:10 AM 77.0 °F - 60.8 °F 57% 29.80 in 2.5 mi Calm Calm - N/A   Haze
5:30 AM 73 °F - 64 °F 66% 29.78 in 2 mi Calm Calm - -   Haze
6:10 AM 77.0 °F - 60.8 °F 57% 29.83 in 2.5 mi Calm Calm - N/A   Haze
7:10 AM 77.0 °F - 60.8 °F 57% 29.83 in 2.5 mi Calm Calm - N/A   Haze
8:10 AM 82.4 °F 83.4 °F 62.6 °F 51% 29.86 in 3.1 mi SSE 3.5 mph - N/A   Haze
8:30 AM 86 °F - 63 °F 36% 29.83 in 2 mi ESE 3.5 mph - -   Haze
9:10 AM 89.6 °F 91.1 °F 64.4 °F 43% 29.89 in 3.7 mi SSE 5.8 mph - N/A   Unknown
10:10 AM 95.0 °F 96.0 °F 62.6 °F 34% 29.89 in 3.7 mi South 12.7 mph - N/A   Unknown
11:10 AM 95.0 °F 96.0 °F 62.6 °F 34% 29.89 in 3.7 mi SSE 4.6 mph - N/A   Unknown
11:30 AM 97 °F - 63 °F 24% 29.80 in 2 mi ESE 4.6 mph - -   Clear
12:10 PM 98.6 °F 102.8 °F 66.2 °F 35% 29.86 in 3.7 mi SSE 5.8 mph - N/A   Unknown
1:10 PM 100.4 °F 103.6 °F 64.4 °F 31% 29.83 in 3.7 mi South 4.6 mph - N/A   Unknown
2:10 PM 104.0 °F 108.9 °F 66.2 °F 29% 29.77 in 3.7 mi SSW 8.1 mph - N/A   Unknown
2:30 PM 101 °F - 76 °F 36% 29.68 in 2 mi SSW 10.4 mph - -  
3:10 PM 105.8 °F 109.8 °F 64.4 °F 26% 29.74 in 3.7 mi SW 6.9 mph - N/A   Partly Cloudy
5:10 PM 105.8 °F 108.3 °F 62.6 °F 24% 29.71 in 3.1 mi South 6.9 mph - N/A   Haze
5:30 PM 99 °F - 61 °F 19% 29.64 in 2 mi South 8.1 mph - -   Haze
6:10 PM 102.2 °F 105.5 °F 64.4 °F 29% 29.74 in 3.1 mi South 6.9 mph - N/A   Haze
6:40 PM 100.4 °F 103.6 °F 64.4 °F 31% 29.74 in 3.1 mi South 3.5 mph - N/A   Haze
7:10 PM 98.6 °F 101.0 °F 64.4 °F 32% 29.74 in 2.5 mi South 5.8 mph - N/A   Haze
8:10 PM 95.0 °F 96.0 °F 62.6 °F 34% 29.74 in 2.5 mi Calm Calm - N/A   Haze
8:30 PM 88 °F - 66 °F 38% 29.70 in 1 mi South 6.9 mph - -   Haze
10:10 PM 89.6 °F 91.1 °F 64.4 °F 43% 29.80 in 2.5 mi NNE 8.1 mph - N/A   Haze
11:10 PM 84.2 °F 86.6 °F 66.2 °F 55% 29.86 in 2.5 mi North 2.3 mph - N/A   Haze
11:30 PM 80 °F - 66 °F 54% 29.81 in 2 mi ENE 2.3 mph - -   Haze